Regional Weather Roundup
Issued by NWS

Home | Current Version | Previous Version | Text Only | Print | Product List | Glossary On
Versions: 1 2 3 4 5 6 7 8 9 10 11 12 13 14 15 16 17 18 19 20 21 22 23 24 25 26 27 28 29 30 31 32 33 34 35 36 37 38 39 40 41 42 43 44 45 46 47 48 49 50
000
ASUS45 KCYS 140010
RWRWY

WYOMING REGIONAL WEATHER ROUNDUP
NATIONAL WEATHER SERVICE CHEYENNE WY
500 PM MST SAT FEB 13 2016

NOTE:  "FAIR" INDICATES FEW OR NO CLOUDS BELOW 12,000 FEET
WITH NO SIGNIFICANT WEATHER AND/OR OBSTRUCTIONS TO VISIBILITY.

WYZ001-140100-
YELLOWSTONE NATIONAL PARK

CITY           SKY/WX    TMP DP  RH WIND       PRES   REMARKS
LK YELLOWSTONE   N/A     28  10  46 W9G22     30.12R WCI  19
6HR MIN TEMP:  26; 6HR MAX TEMP:  31; 6HR PCP:  0.05;

W YELLOWSTONE  NOT AVBL

$$
WYZ002>013-054>058-071-098>099-140100-
NORTHERN WYOMING

CITY           SKY/WX    TMP DP  RH WIND       PRES   REMARKS
JACKSON        PTCLDY    32  21  64 SW16      30.17R WCI  21
CODY           FAIR      43  10  26 W15G32    30.00R
GREYBULL       FAIR      47  19  33 NW15      29.98
6HR MIN TEMP:  33; 6HR MAX TEMP:  53;

WORLAND        FAIR      42  28  57 NW8       30.00R
6HR MIN TEMP:  38; 6HR MAX TEMP:  56;

SHERIDAN       FAIR      38  32  79 NW8       29.94S WCI  32
6HR MIN TEMP:  34; 6HR MAX TEMP:  65; 6HR PCP:  0.04;

BUFFALO        FAIR      39  21  48 NW25G38   29.92R WCI  28
6HR MIN TEMP:  33; 6HR MAX TEMP:  60; 6HR PCP: TRACE;

GILLETTE       CLOUDY    33  31  92 W9        29.93R WCI  25
6HR MIN TEMP:  33; 6HR MAX TEMP:  61; 6HR PCP:  0.04;

HULETT         LGT SNOW  34  32  93 NW12G17   29.91R WCI  25
NEWCASTLE      LGT SNOW  34  32  93 NW40      29.87R WCI  18

$$
WYZ014>020-022>026-101>103-140100-
CENTRAL WYOMING

CITY           SKY/WX    TMP DP  RH WIND       PRES   REMARKS
BIG PINEY      FAIR      35  18  49 NW25G36   30.16R WCI  23
6HR MIN TEMP:  33; 6HR MAX TEMP:  43;

PINEDALE         N/A     32  19  59 NW18G32   30.19R WCI  20
DUBOIS         CLOUDY    30  21  69 NW21G29   30.06R WCI  17
LANDER         FAIR      45  17  32 NW12      30.00R
6HR MIN TEMP:  45; 6HR MAX TEMP:  53;

RIVERTON       FAIR      41  21  44 NW36G47   30.03R
6HR MIN TEMP:  41; 6HR MAX TEMP:  51;

CASPER         CLOUDY    35  29  78 N15       30.00R WCI  25
6HR MIN TEMP:  35; 6HR MAX TEMP:  48; 6HR PCP: TRACE;

DOUGLAS        CLOUDY    36  29  75 N30G46    29.94R WCI  23
6HR MIN TEMP:  36; 6HR MAX TEMP:  57;


$$
WYZ021-027>030-104>119-140100-
SOUTHERN WYOMING

CITY           SKY/WX    TMP DP  RH WIND       PRES   REMARKS
EVANSTON       FAIR      36  25  64 SW17      30.24R WCI  26
6HR MIN TEMP:  35; 6HR MAX TEMP:  41;

KEMMERER       FAIR      34  23  64 W25       30.20R WCI  21
FORT BRIDGER   CLEAR     37  28  70 W29G36    30.20F WCI  25
ROCK SPRINGS   FAIR      39  25  57 W23G31    30.16R WCI  28
6HR MIN TEMP:  39; 6HR MAX TEMP:  44;

DIXON          FAIR      39  24  55 SW9       30.16F WCI  32
RAWLINS        FAIR      38  25  59 W32G45    29.99R WCI  25
6HR MIN TEMP:  38; 6HR MAX TEMP:  41;

SARATOGA       FAIR      37  25  60 W38G44    30.01R WCI  24
LARAMIE        FAIR      43  12  28 W39G49    29.93S
6HR MIN TEMP:  43; 6HR MAX TEMP:  51;

CHEYENNE       FAIR      50  17  27 W26G41    29.91F
6HR MIN TEMP:  50; 6HR MAX TEMP:  59;

TORRINGTON     FAIR      55  18  23 W29G39    29.82R
6HR MIN TEMP:  34; 6HR MAX TEMP:  61;

PINE BLUFFS    FAIR      54  18  24 W23G32    29.88F

$$



USA.gov is the U.S. government's official web portal to all federal, state and local government web resources and services.